Regional Weather Roundup
Issued by NWS Huntsville, AL

Home | Current Version | Previous Version | Text Only | Print | Product List | Glossary On
Versions: 1 2 3 4 5 6 7 8 9 10 11 12 13 14 15 16 17 18 19 20 21 22 23 24 25 26 27 28 29 30 31 32 33 34 35 36 37 38 39 40 41 42 43 44 45 46 47 48 49 50
589
ASUS44 KHUN 011210
RWRHUN

WEATHER ROUNDUP FOR THE TENNESSEE VALLEY
NATIONAL WEATHER SERVICE HUNTSVILLE AL
700 AM CDT SUN MAY 01 2016

ALZ001>004-011300-
NORTHWEST ALABAMA

CITY           SKY/WX    TMP DP  RH WIND       PRES   REMARKS
SHOALS AIRPORT NOT AVBL
SHOALS TVA RES   N/A     64 N/A N/A MISG        N/A
$$

ALZ005>007-016-011300-
NORTH CENTRAL ALABAMA

CITY           SKY/WX    TMP DP  RH WIND       PRES   REMARKS
DECATUR AP     CLOUDY    66  63  90 S8        29.97R
6HR MIN TEMP:  62; 6HR MAX TEMP:  67;

HUNTSVILLE AP  CLOUDY    68  63  84 S5        29.97R
6HR MIN TEMP:  63; 6HR MAX TEMP:  69;

HUN NWS/UAH      N/A     68  62  80 S5          N/A
MERIDIANVILLE  PTSUNNY   66  59  77 CALM      29.97S
REDSTONE ARSN  CLOUDY    67  65  93 S3        29.96R
VINEMONT AP    PTSUNNY   65  63  90 S5        30.00R
$$

ALZ008>010-011300-
NORTHEAST ALABAMA

CITY           SKY/WX    TMP DP  RH WIND       PRES   REMARKS
ALBERTVILLE    CLOUDY    66  66 100 S3        29.99R
FORT PAYNE     CLOUDY    63  59  88 CALM      29.99S
SCOTTSBORO AP  CLOUDY    64  64 100 CALM      29.99R
SCOTTSBORO HCN   N/A     63 N/A N/A MISG        N/A
VALLEY HEAD      N/A     64 N/A N/A MISG        N/A
$$

TNZ076-096-097-011300-
SOUTHEASTERN MIDDLE TENNESSEE

CITY           SKY/WX    TMP DP  RH WIND       PRES   REMARKS
TULLAHOMA      MOSUNNY   64  64 100 S3        29.99R
WINCHESTER     PTSUNNY   64  63  94 CALM      29.98S
$$

...SURROUNDING SITES...

CITY           SKY/WX    TMP DP  RH WIND       PRES   REMARKS
ATLANTA        MOSUNNY   67  65  93 CALM      30.03R FOG
ANNISTON       PTSUNNY   69  65  86 CALM      30.00R
BIRMINGHAM     CLOUDY    70  64  81 SE5       30.00S
CHATTANOOGA    MOSUNNY   65  63  93 CALM      29.99R
DALTON         PTSUNNY   63  63 100 CALM      30.01R FOG
GADSDEN        SUNNY     65  64  97 CALM      30.00R
GOLDEN TRNGL   CLOUDY    66  61  82 SE7       29.93S
HALEYVILLE     FAIR      64  61  90 S5        29.99R
JACKSON TN     MOSUNNY   64  63  96 CALM      29.91F
MEMPHIS        PTCLDY    65  63  93 CALM      29.89R
NASHVILLE      PTSUNNY   65  62  90 S6        29.95R
OXFORD MS      FAIR      63  63 100 CALM      29.93S
ROME           SUNNY     66  63  90 CALM      30.00R
SAVANNAH       CLOUDY    66  63  88 S6        29.93S
TUPELO         PTSUNNY   65  61  87 SE3       29.93R
TUSCALOOSA     CLOUDY    67  64  90 E3        29.96S
$$

...GULF COAST WEATHER...

CITY           SKY/WX    TMP DP  RH WIND       PRES   REMARKS
GULFPORT       CLOUDY    76  73  91 SE7       29.91R
PASCAGOULA     CLOUDY    75  73  93 SE6       29.93R
MOBILE         CLOUDY    73  73 100 SE5       29.95R FOG
GULF SHORES    MOSUNNY   73  73 100 E14       29.95R
DESTIN         CLOUDY    77  76  96 SE9       29.97
PANAMA CITY    CLOUDY    73  72  97 E8        29.98R
APPALACHICOLA  SUNNY     75  73  93 SE9       29.98R
$$





USA.gov is the U.S. government's official web portal to all federal, state and local government web resources and services.